Time,TemperatureF,DewpointF,PressureIn,WindDirection,WindDirectionDegrees,WindSpeedMPH,WindSpeedGustMPH,Humidity,HourlyPrecipIn,Conditions,Clouds,dailyrainin,SoftwareType,DateUTC
2013-05-14 00:00:00,49.2,35.9,29.81,SW,219,3.0,7.0,60,0.00,CLR,,0.00,WeatherDisplay:10.37,2013-05-14 05:00:00,
2013-05-14 00:05:00,49.2,35.5,29.81,SSW,205,2.0,6.0,59,0.00,CLR,,0.00,WeatherDisplay:10.37,2013-05-14 05:05:00,
2013-05-14 00:10:00,49.2,35.9,29.81,South,175,2.0,8.0,60,0.00,CLR,,0.00,WeatherDisplay:10.37,2013-05-14 05:10:00,
2013-05-14 00:15:00,49.1,35.4,29.80,South,170,1.0,7.0,59,0.00,CLR,,0.00,WeatherDisplay:10.37,2013-05-14 05:15:00,
2013-05-14 00:20:00,49.1,35.4,29.80,South,190,3.0,14.0,59,0.00,CLR,,0.00,WeatherDisplay:10.37,2013-05-14 05:20:00,
2013-05-14 00:25:00,48.9,35.6,29.80,SSW,195,3.0,9.0,60,0.00,CLR,,0.00,WeatherDisplay:10.37,2013-05-14 05:25:00,
2013-05-14 00:30:00,48.9,35.6,29.79,South,177,2.0,12.0,60,0.00,CLR,,0.00,WeatherDisplay:10.37,2013-05-14 05:30:00,
2013-05-14 00:35:00,48.9,36.0,29.79,SSE,168,2.0,5.0,61,0.00,CLR,,0.00,WeatherDisplay:10.37,2013-05-14 05:35:00,
2013-05-14 00:40:00,48.9,36.0,29.79,SSE,165,2.0,5.0,61,0.00,CLR,,0.00,WeatherDisplay:10.37,2013-05-14 05:40:00,
2013-05-14 00:45:00,48.9,35.6,29.78,South,179,2.0,8.0,60,0.00,CLR,,0.00,WeatherDisplay:10.37,2013-05-14 05:45:00,
2013-05-14 00:50:00,49.1,35.8,29.78,South,177,2.0,7.0,60,0.00,CLR,,0.00,WeatherDisplay:10.37,2013-05-14 05:50:00,
2013-05-14 00:55:00,49.2,36.3,29.78,South,177,2.0,6.0,61,0.00,CLR,,0.00,WeatherDisplay:10.37,2013-05-14 05:55:00,
2013-05-14 01:00:00,49.2,35.9,29.77,South,183,3.0,8.0,60,0.00,CLR,,0.00,WeatherDisplay:10.37,2013-05-14 06:00:00,
2013-05-14 01:05:00,49.4,36.1,29.77,South,189,2.0,5.0,60,0.00,CLR,,0.00,WeatherDisplay:10.37,2013-05-14 06:05:00,
2013-05-14 01:10:00,49.4,36.5,29.77,South,171,2.0,4.0,61,0.00,CLR,,0.00,WeatherDisplay:10.37,2013-05-14 06:10:00,
2013-05-14 01:15:00,49.4,36.1,29.76,South,191,1.0,9.0,60,0.00,CLR,,0.00,WeatherDisplay:10.37,2013-05-14 06:15:00,
2013-05-14 01:20:00,49.4,36.5,29.76,SSW,200,1.0,6.0,61,0.00,CLR,,0.00,WeatherDisplay:10.37,2013-05-14 06:20:00,
2013-05-14 01:25:00,49.5,36.6,29.76,SSW,197,3.0,10.0,61,0.00,CLR,,0.00,WeatherDisplay:10.37,2013-05-14 06:25:00,
2013-05-14 01:30:00,49.5,36.6,29.75,SSW,198,2.0,5.0,61,0.00,CLR,,0.00,WeatherDisplay:10.37,2013-05-14 06:30:00,
2013-05-14 01:35:00,49.6,36.7,29.75,SSW,201,3.0,8.0,61,0.00,CLR,,0.00,WeatherDisplay:10.37,2013-05-14 06:35:00,
2013-05-14 01:40:00,49.8,37.3,29.75,SSW,202,3.0,6.0,62,0.00,CLR,,0.00,WeatherDisplay:10.37,2013-05-14 06:40:00,
2013-05-14 01:45:00,50.1,37.2,29.74,SSW,197,2.0,6.0,61,0.00,CLR,,0.00,WeatherDisplay:10.37,2013-05-14 06:45:00,
2013-05-14 01:50:00,50.1,37.6,29.74,SSW,192,2.0,5.0,62,0.00,CLR,,0.00,WeatherDisplay:10.37,2013-05-14 06:50:00,
2013-05-14 01:55:00,50.2,37.6,29.74,SSW,201,3.0,7.0,62,0.00,CLR,,0.00,WeatherDisplay:10.37,2013-05-14 06:55:00,
2013-05-14 02:00:00,50.2,37.7,29.73,SSW,201,3.0,8.0,62,0.00,CLR,,0.00,WeatherDisplay:10.37,2013-05-14 07:00:00,
2013-05-14 02:05:00,50.4,37.9,29.73,SSW,201,5.0,10.0,62,0.00,CLR,,0.00,WeatherDisplay:10.37,2013-05-14 07:05:00,
2013-05-14 02:10:00,50.5,38.4,29.73,SSW,198,3.0,7.0,63,0.00,CLR,,0.00,WeatherDisplay:10.37,2013-05-14 07:10:00,
2013-05-14 02:15:00,50.5,38.8,29.72,SSW,204,3.0,7.0,64,0.00,CLR,,0.00,WeatherDisplay:10.37,2013-05-14 07:15:00,
2013-05-14 02:20:00,50.5,38.8,29.72,SSW,195,3.0,7.0,64,0.00,CLR,,0.00,WeatherDisplay:10.37,2013-05-14 07:20:00,
2013-05-14 02:25:00,50.5,38.8,29.72,South,190,3.0,8.0,64,0.00,CLR,,0.00,WeatherDisplay:10.37,2013-05-14 07:25:00,
2013-05-14 02:30:00,50.5,38.8,29.71,SSW,198,3.0,7.0,64,0.00,CLR,,0.00,WeatherDisplay:10.37,2013-05-14 07:30:00,
2013-05-14 02:35:00,50.4,39.1,29.71,SSW,193,3.0,7.0,65,0.00,CLR,,0.00,WeatherDisplay:10.37,2013-05-14 07:35:00,
2013-05-14 02:40:00,50.4,39.1,29.71,South,190,2.0,8.0,65,0.00,CLR,,0.00,WeatherDisplay:10.37,2013-05-14 07:40:00,
2013-05-14 02:45:00,50.4,39.1,29.70,SSW,192,3.0,8.0,65,0.00,CLR,,0.00,WeatherDisplay:10.37,2013-05-14 07:45:00,
2013-05-14 02:50:00,50.4,39.5,29.70,SSW,193,2.0,7.0,66,0.00,CLR,,0.00,WeatherDisplay:10.37,2013-05-14 07:50:00,
2013-05-14 03:00:00,50.2,39.7,29.69,SSW,199,2.0,6.0,67,0.00,CLR,,0.00,WeatherDisplay:10.37,2013-05-14 08:00:00,
2013-05-14 03:05:00,50.4,39.9,29.69,SSW,209,2.0,8.0,67,0.00,CLR,,0.00,WeatherDisplay:10.37,2013-05-14 08:05:00,
2013-05-14 03:10:00,50.5,39.9,29.69,SSW,201,3.0,7.0,67,0.00,CLR,,0.00,WeatherDisplay:10.37,2013-05-14 08:10:00,
2013-05-14 03:15:00,50.6,40.0,29.68,SSW,197,2.0,7.0,67,0.00,CLR,,0.00,WeatherDisplay:10.37,2013-05-14 08:15:00,
2013-05-14 03:20:00,50.7,40.1,29.68,South,191,3.0,6.0,67,0.00,CLR,,0.00,WeatherDisplay:10.37,2013-05-14 08:20:00,
2013-05-14 03:25:00,50.8,40.2,29.68,South,187,3.0,7.0,67,0.00,CLR,,0.00,WeatherDisplay:10.37,2013-05-14 08:25:00,
2013-05-14 03:30:00,51.0,40.4,29.67,SSW,197,3.0,7.0,67,0.00,CLR,,0.00,WeatherDisplay:10.37,2013-05-14 08:30:00,
2013-05-14 03:35:00,51.1,40.5,29.67,SSW,203,3.0,8.0,67,0.00,CLR,,0.00,WeatherDisplay:10.37,2013-05-14 08:35:00,
2013-05-14 03:40:00,51.3,41.1,29.67,SSW,209,2.0,6.0,68,0.00,CLR,,0.00,WeatherDisplay:10.37,2013-05-14 08:40:00,
2013-05-14 03:45:00,51.3,41.1,29.67,SSW,210,3.0,6.0,68,0.00,CLR,,0.00,WeatherDisplay:10.37,2013-05-14 08:45:00,
2013-05-14 03:50:00,51.4,41.6,29.67,SSW,205,5.0,7.0,69,0.00,CLR,,0.00,WeatherDisplay:10.37,2013-05-14 08:50:00,
2013-05-14 03:55:00,51.6,41.8,29.67,SSW,209,5.0,7.0,69,0.00,CLR,,0.00,WeatherDisplay:10.37,2013-05-14 08:55:00,
2013-05-14 04:00:00,51.6,41.8,29.67,SSW,211,5.0,7.0,69,0.00,CLR,,0.00,WeatherDisplay:10.37,2013-05-14 09:00:00,
2013-05-14 04:05:00,51.7,41.5,29.67,SSW,206,3.0,7.0,68,0.00,CLR,,0.00,WeatherDisplay:10.37,2013-05-14 09:05:00,
2013-05-14 04:10:00,51.6,41.4,29.67,SSW,211,3.0,6.0,68,0.00,CLR,,0.00,WeatherDisplay:10.37,2013-05-14 09:10:00,
2013-05-14 04:15:00,51.6,41.4,29.65,SW,216,3.0,7.0,68,0.00,CLR,,0.00,WeatherDisplay:10.37,2013-05-14 09:15:00,
2013-05-14 04:20:00,51.6,41.7,29.65,SSW,211,3.0,7.0,69,0.00,CLR,,0.00,WeatherDisplay:10.37,2013-05-14 09:20:00,
2013-05-14 04:25:00,51.4,41.9,29.65,SW,215,3.0,6.0,70,0.00,CLR,,0.00,WeatherDisplay:10.37,2013-05-14 09:25:00,
2013-05-14 04:30:00,51.4,41.9,29.65,SSW,210,3.0,7.0,70,0.00,CLR,,0.00,WeatherDisplay:10.37,2013-05-14 09:30:00,
2013-05-14 04:35:00,51.4,42.3,29.65,SSW,206,5.0,7.0,71,0.00,CLR,,0.00,WeatherDisplay:10.37,2013-05-14 09:35:00,
2013-05-14 04:40:00,51.4,42.3,29.65,SSW,202,3.0,7.0,71,0.00,CLR,,0.00,WeatherDisplay:10.37,2013-05-14 09:40:00,
2013-05-14 04:45:00,51.3,42.2,29.65,SSW,204,3.0,7.0,71,0.00,CLR,,0.00,WeatherDisplay:10.37,2013-05-14 09:45:00,
2013-05-14 04:50:00,51.4,42.3,29.65,SSW,205,2.0,6.0,71,0.00,CLR,,0.00,WeatherDisplay:10.37,2013-05-14 09:50:00,
2013-05-14 04:55:00,51.4,42.3,29.65,SSW,205,2.0,4.0,71,0.00,CLR,,0.00,WeatherDisplay:10.37,2013-05-14 09:55:00,
2013-05-14 05:00:00,51.4,42.3,29.65,SSW,205,3.0,6.0,71,0.00,CLR,,0.00,WeatherDisplay:10.37,2013-05-14 10:00:00,
2013-05-14 05:10:00,51.6,42.1,29.65,SSW,208,3.0,7.0,70,0.00,CLR,,0.00,WeatherDisplay:10.37,2013-05-14 10:10:00,
2013-05-14 05:15:00,51.7,42.2,29.64,SSW,207,3.0,7.0,70,0.00,CLR,,0.00,WeatherDisplay:10.37,2013-05-14 10:15:00,
2013-05-14 05:20:00,51.7,42.2,29.64,SSW,205,3.0,6.0,70,0.00,CLR,,0.00,WeatherDisplay:10.37,2013-05-14 10:20:00,
2013-05-14 05:25:00,51.9,42.4,29.64,SSW,207,3.0,7.0,70,0.00,CLR,,0.00,WeatherDisplay:10.37,2013-05-14 10:25:00,
2013-05-14 05:30:00,52.0,42.5,29.64,SSW,208,3.0,6.0,70,0.00,CLR,,0.00,WeatherDisplay:10.37,2013-05-14 10:30:00,
2013-05-14 05:35:00,52.0,42.9,29.64,SSW,205,3.0,6.0,71,0.00,CLR,,0.00,WeatherDisplay:10.37,2013-05-14 10:35:00,
2013-05-14 05:40:00,52.0,42.9,29.64,SSW,205,2.0,5.0,71,0.00,CLR,,0.00,WeatherDisplay:10.37,2013-05-14 10:40:00,
2013-05-14 05:45:00,52.0,42.9,29.64,SSW,205,3.0,5.0,71,0.00,CLR,,0.00,WeatherDisplay:10.37,2013-05-14 10:45:00,
2013-05-14 05:50:00,52.0,42.9,29.64,SSW,205,2.0,5.0,71,0.00,CLR,,0.00,WeatherDisplay:10.37,2013-05-14 10:50:00,
2013-05-14 05:55:00,52.0,43.3,29.64,SSW,205,2.0,4.0,72,0.00,CLR,,0.00,WeatherDisplay:10.37,2013-05-14 10:55:00,
2013-05-14 06:00:00,52.0,43.3,29.63,SSW,205,2.0,7.0,72,0.00,CLR,,0.00,WeatherDisplay:10.37,2013-05-14 11:00:00,
2013-05-14 06:05:00,52.2,43.4,29.63,SSW,204,3.0,5.0,72,0.00,CLR,,0.00,WeatherDisplay:10.37,2013-05-14 11:05:00,
2013-05-14 06:10:00,52.3,43.2,29.63,SSW,205,3.0,6.0,71,0.00,CLR,,0.00,WeatherDisplay:10.37,2013-05-14 11:10:00,
2013-05-14 06:15:00,52.6,43.5,29.63,SSW,206,3.0,6.0,71,0.00,CLR,,0.00,WeatherDisplay:10.37,2013-05-14 11:15:00,
2013-05-14 06:20:00,52.9,43.7,29.63,SSW,208,3.0,5.0,71,0.00,CLR,,0.00,WeatherDisplay:10.37,2013-05-14 11:20:00,
2013-05-14 06:25:00,53.2,43.7,29.63,SW,215,3.0,5.0,70,0.00,CLR,,0.00,WeatherDisplay:10.37,2013-05-14 11:25:00,
2013-05-14 06:30:00,53.5,44.0,29.63,SSW,208,2.0,5.0,70,0.00,CLR,,0.00,WeatherDisplay:10.37,2013-05-14 11:30:00,
2013-05-14 06:35:00,53.8,44.3,29.63,SSW,196,3.0,5.0,70,0.00,CLR,,0.00,WeatherDisplay:10.37,2013-05-14 11:35:00,
2013-05-14 06:40:00,54.2,44.2,29.63,SSW,209,3.0,6.0,69,0.00,CLR,,0.00,WeatherDisplay:10.37,2013-05-14 11:40:00,
2013-05-14 06:45:00,54.5,44.5,29.63,SW,221,3.0,6.0,69,0.00,CLR,,0.00,WeatherDisplay:10.37,2013-05-14 11:45:00,
2013-05-14 06:50:00,54.8,44.8,29.63,SW,215,5.0,6.0,69,0.00,CLR,,0.00,WeatherDisplay:10.37,2013-05-14 11:50:00,
2013-05-14 06:55:00,55.1,45.1,29.63,SSW,211,3.0,5.0,69,0.00,CLR,,0.00,WeatherDisplay:10.37,2013-05-14 11:55:00,
2013-05-14 07:00:00,55.3,44.9,29.63,SSW,209,3.0,6.0,68,0.00,CLR,,0.00,WeatherDisplay:10.37,2013-05-14 12:00:00,
2013-05-14 07:05:00,55.6,45.2,29.63,SSW,206,5.0,7.0,68,0.00,CLR,,0.00,WeatherDisplay:10.37,2013-05-14 12:05:00,
2013-05-14 07:10:00,55.9,45.5,29.63,SSW,207,3.0,6.0,68,0.00,CLR,,0.00,WeatherDisplay:10.37,2013-05-14 12:10:00,
2013-05-14 07:15:00,56.2,45.4,29.63,SSW,208,5.0,7.0,67,0.00,CLR,,0.00,WeatherDisplay:10.37,2013-05-14 12:15:00,
2013-05-14 07:20:00,56.5,45.7,29.63,SSW,207,3.0,6.0,67,0.00,CLR,,0.00,WeatherDisplay:10.37,2013-05-14 12:20:00,
2013-05-14 07:25:00,56.7,45.8,29.63,SSW,207,5.0,6.0,67,0.00,CLR,,0.00,WeatherDisplay:10.37,2013-05-14 12:25:00,
2013-05-14 07:30:00,56.9,46.1,29.62,SSW,208,5.0,7.0,67,0.00,CLR,,0.00,WeatherDisplay:10.37,2013-05-14 12:30:00,
2013-05-14 07:35:00,57.3,46.0,29.62,SW,215,3.0,7.0,66,0.00,CLR,,0.00,WeatherDisplay:10.37,2013-05-14 12:35:00,
2013-05-14 07:40:00,57.6,46.4,29.62,SW,218,3.0,5.0,66,0.00,CLR,,0.00,WeatherDisplay:10.37,2013-05-14 12:40:00,
2013-05-14 07:45:00,58.1,46.8,29.62,SW,218,3.0,5.0,66,0.00,CLR,,0.00,WeatherDisplay:10.37,2013-05-14 12:45:00,
2013-05-14 07:50:00,58.4,47.1,29.62,SW,218,2.0,4.0,66,0.00,CLR,,0.00,WeatherDisplay:10.37,2013-05-14 12:50:00,
2013-05-14 07:55:00,58.9,47.5,29.62,SW,218,3.0,5.0,66,0.00,CLR,,0.00,WeatherDisplay:10.37,2013-05-14 12:55:00,
2013-05-14 08:00:00,59.2,47.8,29.62,SW,215,3.0,6.0,66,0.00,CLR,,0.00,WeatherDisplay:10.37,2013-05-14 13:00:00,
2013-05-14 08:05:00,59.5,47.7,29.62,SW,219,5.0,8.0,65,0.00,CLR,,0.00,WeatherDisplay:10.37,2013-05-14 13:05:00,
2013-05-14 08:10:00,59.6,47.8,29.62,SW,224,3.0,6.0,65,0.00,CLR,,0.00,WeatherDisplay:10.37,2013-05-14 13:10:00,
2013-05-14 08:15:00,59.9,48.1,29.62,SW,220,3.0,12.0,65,0.00,CLR,,0.00,WeatherDisplay:10.37,2013-05-14 13:15:00,
2013-05-14 08:20:00,60.2,48.0,29.62,SW,215,2.0,6.0,64,0.00,CLR,,0.00,WeatherDisplay:10.37,2013-05-14 13:20:00,
2013-05-14 08:25:00,60.6,48.3,29.62,SSW,209,2.0,6.0,64,0.00,CLR,,0.00,WeatherDisplay:10.37,2013-05-14 13:25:00,
2013-05-14 08:30:00,61.0,48.7,29.61,SW,218,3.0,6.0,64,0.00,CLR,,0.00,WeatherDisplay:10.37,2013-05-14 13:30:00,
2013-05-14 08:35:00,61.3,49.0,29.61,SW,227,3.0,8.0,64,0.00,CLR,,0.00,WeatherDisplay:10.37,2013-05-14 13:35:00,
2013-05-14 08:40:00,61.6,49.3,29.61,SW,229,3.0,8.0,64,0.00,CLR,,0.00,WeatherDisplay:10.37,2013-05-14 13:40:00,
2013-05-14 08:45:00,61.8,49.1,29.62,SW,225,3.0,7.0,63,0.00,CLR,,0.00,WeatherDisplay:10.37,2013-05-14 13:45:00,
2013-05-14 08:50:00,62.1,49.8,29.62,SW,233,3.0,6.0,64,0.00,CLR,,0.00,WeatherDisplay:10.37,2013-05-14 13:50:00,
2013-05-14 08:55:00,62.4,50.1,29.62,SW,232,1.0,7.0,64,0.00,CLR,,0.00,WeatherDisplay:10.37,2013-05-14 13:55:00,
2013-05-14 09:00:00,62.9,50.5,29.61,SW,225,2.0,5.0,64,0.00,CLR,,0.00,WeatherDisplay:10.37,2013-05-14 14:00:00,
2013-05-14 09:05:00,63.2,50.4,29.61,SW,224,2.0,7.0,63,0.00,CLR,,0.00,WeatherDisplay:10.37,2013-05-14 14:05:00,
2013-05-14 09:10:00,63.7,51.3,29.61,SW,219,2.0,4.0,64,0.00,CLR,,0.00,WeatherDisplay:10.37,2013-05-14 14:10:00,
2013-05-14 09:15:00,64.0,51.1,29.61,SW,220,2.0,5.0,63,0.00,CLR,,0.00,WeatherDisplay:10.37,2013-05-14 14:15:00,
2013-05-14 09:20:00,64.3,51.0,29.61,SW,224,3.0,6.0,62,0.00,CLR,,0.00,WeatherDisplay:10.37,2013-05-14 14:20:00,
2013-05-14 09:25:00,64.7,50.9,29.61,SW,221,3.0,6.0,61,0.00,CLR,,0.00,WeatherDisplay:10.37,2013-05-14 14:25:00,
2013-05-14 09:30:00,65.0,51.2,29.60,SW,217,3.0,6.0,61,0.00,CLR,,0.00,WeatherDisplay:10.37,2013-05-14 14:30:00,
2013-05-14 09:40:00,65.8,52.4,29.60,SW,220,3.0,5.0,62,0.00,CLR,,0.00,WeatherDisplay:10.37,2013-05-14 14:40:00,
2013-05-14 09:45:00,66.1,51.4,29.60,SW,218,2.0,5.0,59,0.00,CLR,,0.00,WeatherDisplay:10.37,2013-05-14 14:45:00,
2013-05-14 09:50:00,66.4,51.6,29.60,SW,222,0.0,4.0,59,0.00,CLR,,0.00,WeatherDisplay:10.37,2013-05-14 14:50:00,
2013-05-14 09:55:00,66.9,52.6,29.60,SW,223,1.0,5.0,60,0.00,CLR,,0.00,WeatherDisplay:10.37,2013-05-14 14:55:00,
2013-05-14 10:00:00,67.3,52.5,29.61,SW,228,1.0,4.0,59,0.00,CLR,,0.00,WeatherDisplay:10.37,2013-05-14 15:00:00,
2013-05-14 10:05:00,67.4,51.6,29.61,SW,236,1.0,3.0,57,0.00,CLR,,0.00,WeatherDisplay:10.37,2013-05-14 15:05:00,
2013-05-14 10:10:00,67.7,51.9,29.61,West,267,0.0,4.0,57,0.00,CLR,,0.00,WeatherDisplay:10.37,2013-05-14 15:10:00,
2013-05-14 10:15:00,67.8,52.0,29.62,WNW,288,2.0,3.0,57,0.00,CLR,,0.00,WeatherDisplay:10.37,2013-05-14 15:15:00,
2013-05-14 10:20:00,68.1,51.8,29.62,WNW,294,2.0,5.0,56,0.00,CLR,,0.00,WeatherDisplay:10.37,2013-05-14 15:20:00,
2013-05-14 10:25:00,68.4,51.6,29.62,WNW,295,1.0,4.0,55,0.00,CLR,,0.00,WeatherDisplay:10.37,2013-05-14 15:25:00,
2013-05-14 10:30:00,68.9,52.6,29.63,WNW,290,1.0,5.0,56,0.00,CLR,,0.00,WeatherDisplay:10.37,2013-05-14 15:30:00,
2013-05-14 10:35:00,69.3,52.4,29.63,WNW,293,2.0,4.0,55,0.00,CLR,,0.00,WeatherDisplay:10.37,2013-05-14 15:35:00,
2013-05-14 10:40:00,69.4,51.5,29.63,WNW,297,2.0,4.0,53,0.00,CLR,,0.00,WeatherDisplay:10.37,2013-05-14 15:40:00,
2013-05-14 10:45:00,69.6,52.2,29.62,WNW,297,0.0,4.0,54,0.00,CLR,,0.00,WeatherDisplay:10.37,2013-05-14 15:45:00,
2013-05-14 10:50:00,69.9,52.5,29.62,WNW,297,2.0,4.0,54,0.00,CLR,,0.00,WeatherDisplay:10.37,2013-05-14 15:50:00,
2013-05-14 10:55:00,70.1,51.7,29.62,WNW,296,1.0,3.0,52,0.00,CLR,,0.00,WeatherDisplay:10.37,2013-05-14 15:55:00,
2013-05-14 11:05:00,70.4,51.4,29.62,WNW,296,1.0,4.0,51,0.00,CLR,,0.00,WeatherDisplay:10.37,2013-05-14 16:05:00,
2013-05-14 11:10:00,70.4,51.4,29.62,WNW,296,2.0,3.0,51,0.00,CLR,,0.00,WeatherDisplay:10.37,2013-05-14 16:10:00,
2013-05-14 11:15:00,70.8,53.3,29.63,WNW,296,1.0,3.0,54,0.00,CLR,,0.00,WeatherDisplay:10.37,2013-05-14 16:15:00,
2013-05-14 11:20:00,71.3,52.8,29.63,WNW,296,0.0,4.0,52,0.00,CLR,,0.00,WeatherDisplay:10.37,2013-05-14 16:20:00,
2013-05-14 11:30:00,71.8,51.0,29.63,WNW,296,0.0,2.0,48,0.00,CLR,,0.00,WeatherDisplay:10.37,2013-05-14 16:30:00,
2013-05-14 11:35:00,72.3,52.1,29.63,WNW,296,0.0,3.0,49,0.00,CLR,,0.00,WeatherDisplay:10.37,2013-05-14 16:35:00,
2013-05-14 11:40:00,72.5,52.2,29.63,WNW,296,1.0,3.0,49,0.00,CLR,,0.00,WeatherDisplay:10.37,2013-05-14 16:40:00,
2013-05-14 11:45:00,72.7,54.1,29.64,WNW,296,1.0,4.0,52,0.00,CLR,,0.00,WeatherDisplay:10.37,2013-05-14 16:45:00,
2013-05-14 11:50:00,72.9,53.7,29.64,WNW,296,0.0,3.0,51,0.00,CLR,,0.00,WeatherDisplay:10.37,2013-05-14 16:50:00,
2013-05-14 11:55:00,73.2,52.3,29.64,WNW,296,1.0,4.0,48,0.00,CLR,,0.00,WeatherDisplay:10.37,2013-05-14 16:55:00,
2013-05-14 12:00:00,73.2,51.8,29.64,WNW,296,0.0,3.0,47,0.00,CLR,,0.00,WeatherDisplay:10.37,2013-05-14 17:00:00,
2013-05-14 12:05:00,73.3,52.4,29.64,WNW,296,0.0,1.0,48,0.00,CLR,,0.00,WeatherDisplay:10.37,2013-05-14 17:05:00,
2013-05-14 12:10:00,73.9,54.6,29.64,WNW,295,1.0,4.0,51,0.00,CLR,,0.00,WeatherDisplay:10.37,2013-05-14 17:10:00,
2013-05-14 12:15:00,74.8,53.2,29.63,WNW,295,0.0,3.0,47,0.00,CLR,,0.00,WeatherDisplay:10.37,2013-05-14 17:15:00,
2013-05-14 12:20:00,75.1,52.3,29.63,WNW,294,0.0,3.0,45,0.00,CLR,,0.00,WeatherDisplay:10.37,2013-05-14 17:20:00,
2013-05-14 12:25:00,75.1,54.6,29.63,WNW,295,0.0,4.0,49,0.00,CLR,,0.00,WeatherDisplay:10.37,2013-05-14 17:25:00,
2013-05-14 12:30:00,75.1,52.3,29.63,NW,314,0.0,1.0,45,0.00,CLR,,0.00,WeatherDisplay:10.37,2013-05-14 17:30:00,
2013-05-14 12:35:00,75.9,56.5,29.63,WSW,244,2.0,5.0,51,0.00,CLR,,0.00,WeatherDisplay:10.37,2013-05-14 17:35:00,
2013-05-14 12:40:00,76.9,56.8,29.63,SSW,213,2.0,5.0,50,0.00,CLR,,0.00,WeatherDisplay:10.37,2013-05-14 17:40:00,
2013-05-14 12:45:00,77.8,55.9,29.63,SW,216,0.0,4.0,47,0.00,CLR,,0.00,WeatherDisplay:10.37,2013-05-14 17:45:00,
2013-05-14 12:50:00,78.1,54.4,29.63,SW,219,0.0,4.0,44,0.00,CLR,,0.00,WeatherDisplay:10.37,2013-05-14 17:50:00,
2013-05-14 12:55:00,78.5,55.4,29.63,SW,220,0.0,3.0,45,0.00,CLR,,0.00,WeatherDisplay:10.37,2013-05-14 17:55:00,
2013-05-14 13:00:00,78.8,56.3,29.63,SW,228,1.0,4.0,46,0.00,CLR,,0.00,WeatherDisplay:10.37,2013-05-14 18:00:00,
2013-05-14 13:05:00,79.4,56.2,29.63,SW,216,0.0,3.0,45,0.00,CLR,,0.00,WeatherDisplay:10.37,2013-05-14 18:05:00,
2013-05-14 13:10:00,79.8,57.7,29.63,South,169,0.0,4.0,47,0.00,CLR,,0.00,WeatherDisplay:10.37,2013-05-14 18:10:00,
2013-05-14 13:15:00,79.9,56.1,29.63,SSE,163,1.0,5.0,44,0.00,CLR,,0.00,WeatherDisplay:10.37,2013-05-14 18:15:00,
2013-05-14 13:20:00,80.3,56.4,29.63,SSE,151,0.0,5.0,44,0.00,CLR,,0.00,WeatherDisplay:10.37,2013-05-14 18:20:00,
2013-05-14 13:25:00,80.1,56.2,29.63,SSE,166,0.0,2.0,44,0.00,CLR,,0.00,WeatherDisplay:10.37,2013-05-14 18:25:00,
2013-05-14 13:35:00,79.4,53.6,29.65,West,260,1.0,3.0,41,0.00,CLR,,0.00,WeatherDisplay:10.37,2013-05-14 18:35:00,
2013-05-14 13:40:00,78.8,56.3,29.65,WNW,299,1.0,3.0,46,0.00,CLR,,0.00,WeatherDisplay:10.37,2013-05-14 18:40:00,
2013-05-14 13:45:00,79.0,55.2,29.65,NW,315,0.0,1.0,44,0.00,CLR,,0.00,WeatherDisplay:10.37,2013-05-14 18:45:00,
2013-05-14 13:50:00,79.3,54.9,29.65,NW,313,0.0,1.0,43,0.00,CLR,,0.00,WeatherDisplay:10.37,2013-05-14 18:50:00,
2013-05-14 13:55:00,79.2,52.1,29.65,NW,313,0.0,3.0,39,0.00,CLR,,0.00,WeatherDisplay:10.37,2013-05-14 18:55:00,
2013-05-14 14:00:00,79.4,52.3,29.66,NW,313,0.0,3.0,39,0.00,CLR,,0.00,WeatherDisplay:10.37,2013-05-14 19:00:00,
2013-05-14 14:05:00,79.8,51.9,29.66,NW,313,0.0,1.0,38,0.00,CLR,,0.00,WeatherDisplay:10.37,2013-05-14 19:05:00,
2013-05-14 14:10:00,79.9,52.0,29.66,NW,313,0.0,3.0,38,0.00,CLR,,0.00,WeatherDisplay:10.37,2013-05-14 19:10:00,
2013-05-14 14:15:00,80.0,52.9,29.65,NW,313,1.0,3.0,39,0.00,CLR,,0.00,WeatherDisplay:10.37,2013-05-14 19:15:00,
2013-05-14 14:20:00,80.8,54.2,29.65,NW,311,0.0,3.0,40,0.00,CLR,,0.00,WeatherDisplay:10.37,2013-05-14 19:20:00,
2013-05-14 14:25:00,81.2,54.6,29.65,NW,311,0.0,1.0,40,0.00,CLR,,0.00,WeatherDisplay:10.37,2013-05-14 19:25:00,
2013-05-14 14:30:00,81.2,52.4,29.65,WNW,288,0.0,5.0,37,0.00,CLR,,0.00,WeatherDisplay:10.37,2013-05-14 19:30:00,
2013-05-14 14:35:00,81.0,51.5,29.65,West,279,0.0,0.0,36,0.00,CLR,,0.00,WeatherDisplay:10.37,2013-05-14 19:35:00,
2013-05-14 14:40:00,80.9,49.9,29.65,WNW,301,2.0,6.0,34,0.00,CLR,,0.00,WeatherDisplay:10.37,2013-05-14 19:40:00,
2013-05-14 14:45:00,80.5,51.1,29.64,North,1,1.0,5.0,36,0.00,CLR,,0.00,WeatherDisplay:10.37,2013-05-14 19:45:00,
2013-05-14 14:50:00,80.3,50.1,29.64,NNE,14,0.0,3.0,35,0.00,CLR,,0.00,WeatherDisplay:10.37,2013-05-14 19:50:00,
2013-05-14 14:55:00,80.5,55.3,29.64,NE,40,2.0,7.0,42,0.00,CLR,,0.00,WeatherDisplay:10.37,2013-05-14 19:55:00,
2013-05-14 15:00:00,80.0,52.8,29.62,ENE,71,3.0,7.0,39,0.00,CLR,,0.00,WeatherDisplay:10.37,2013-05-14 20:00:00,
2013-05-14 15:05:00,79.4,54.3,29.62,ENE,77,1.0,5.0,42,0.00,CLR,,0.00,WeatherDisplay:10.37,2013-05-14 20:05:00,
2013-05-14 15:10:00,78.8,54.4,29.62,East,90,2.0,5.0,43,0.00,CLR,,0.00,WeatherDisplay:10.37,2013-05-14 20:10:00,
2013-05-14 15:15:00,78.5,53.5,29.57,SE,124,1.0,9.0,42,0.00,CLR,,0.00,WeatherDisplay:10.37,2013-05-14 20:15:00,
2013-05-14 15:20:00,78.5,52.8,29.57,SSE,155,5.0,10.0,41,0.00,CLR,,0.00,WeatherDisplay:10.37,2013-05-14 20:20:00,
2013-05-14 15:25:00,78.5,53.5,29.57,SSE,167,0.0,7.0,42,0.00,CLR,,0.00,WeatherDisplay:10.37,2013-05-14 20:25:00,
2013-05-14 15:30:00,78.6,54.8,29.55,SSE,165,1.0,7.0,44,0.00,CLR,,0.00,WeatherDisplay:10.37,2013-05-14 20:30:00,
2013-05-14 15:35:00,78.5,56.0,29.55,SSE,165,2.0,5.0,46,0.00,CLR,,0.00,WeatherDisplay:10.37,2013-05-14 20:35:00,
2013-05-14 15:40:00,78.5,55.4,29.55,SSE,167,0.0,4.0,45,0.00,CLR,,0.00,WeatherDisplay:10.37,2013-05-14 20:40:00,
2013-05-14 15:45:00,78.5,56.0,29.55,SSE,162,1.0,10.0,46,0.00,CLR,,0.00,WeatherDisplay:10.37,2013-05-14 20:45:00,
2013-05-14 15:50:00,78.5,57.7,29.55,SE,133,1.0,8.0,49,0.00,CLR,,0.00,WeatherDisplay:10.37,2013-05-14 20:50:00,
2013-05-14 15:55:00,78.2,58.0,29.55,ENE,72,1.0,5.0,50,0.00,CLR,,0.00,WeatherDisplay:10.37,2013-05-14 20:55:00,
2013-05-14 16:00:00,78.1,57.4,29.56,ENE,76,1.0,3.0,49,0.00,CLR,,0.00,WeatherDisplay:10.37,2013-05-14 21:00:00,
2013-05-14 16:05:00,78.5,57.8,29.56,ESE,115,2.0,6.0,49,0.00,CLR,,0.00,WeatherDisplay:10.37,2013-05-14 21:05:00,
2013-05-14 16:10:00,79.0,56.5,29.56,SE,143,2.0,9.0,46,0.00,CLR,,0.00,WeatherDisplay:10.37,2013-05-14 21:10:00,
2013-05-14 16:15:00,79.6,56.4,29.55,SE,146,1.0,9.0,45,0.00,CLR,,0.00,WeatherDisplay:10.37,2013-05-14 21:15:00,
2013-05-14 16:20:00,79.9,54.8,29.55,SE,135,1.0,15.0,42,0.00,CLR,,0.00,WeatherDisplay:10.37,2013-05-14 21:20:00,
2013-05-14 16:30:00,80.3,55.1,29.54,SSE,156,2.0,9.0,42,0.00,CLR,,0.00,WeatherDisplay:10.37,2013-05-14 21:30:00,
2013-05-14 16:35:00,80.5,54.6,29.54,SSE,152,2.0,9.0,41,0.00,CLR,,0.00,WeatherDisplay:10.37,2013-05-14 21:35:00,
2013-05-14 16:40:00,80.5,53.3,29.54,South,179,3.0,8.0,39,0.00,CLR,,0.00,WeatherDisplay:10.37,2013-05-14 21:40:00,
2013-05-14 16:45:00,80.5,54.6,29.53,SSE,164,2.0,14.0,41,0.00,CLR,,0.00,WeatherDisplay:10.37,2013-05-14 21:45:00,
2013-05-14 16:50:00,80.4,53.2,29.53,SSE,150,2.0,10.0,39,0.00,CLR,,0.00,WeatherDisplay:10.37,2013-05-14 21:50:00,
2013-05-14 16:55:00,80.3,53.1,29.53,SE,133,1.0,10.0,39,0.00,CLR,,0.00,WeatherDisplay:10.37,2013-05-14 21:55:00,
2013-05-14 17:00:00,80.3,53.8,29.53,SSE,152,6.0,14.0,40,0.00,CLR,,0.00,WeatherDisplay:10.37,2013-05-14 22:00:00,
2013-05-14 17:05:00,80.3,53.8,29.53,SE,144,5.0,12.0,40,0.00,CLR,,0.00,WeatherDisplay:10.37,2013-05-14 22:05:00,
2013-05-14 17:10:00,80.3,55.1,29.53,SE,138,2.0,13.0,42,0.00,CLR,,0.00,WeatherDisplay:10.37,2013-05-14 22:10:00,
2013-05-14 17:15:00,80.5,54.0,29.53,SSE,153,2.0,12.0,40,0.00,CLR,,0.00,WeatherDisplay:10.37,2013-05-14 22:15:00,
2013-05-14 17:20:00,80.8,55.5,29.53,SSE,151,0.0,7.0,42,0.00,CLR,,0.00,WeatherDisplay:10.37,2013-05-14 22:20:00,
2013-05-14 17:25:00,81.1,55.2,29.53,ESE,111,2.0,5.0,41,0.00,CLR,,0.00,WeatherDisplay:10.37,2013-05-14 22:25:00,
2013-05-14 17:30:00,81.2,55.9,29.53,SE,132,1.0,10.0,42,0.00,CLR,,0.00,WeatherDisplay:10.37,2013-05-14 22:30:00,
2013-05-14 17:35:00,81.2,56.6,29.53,ESE,113,3.0,9.0,43,0.00,CLR,,0.00,WeatherDisplay:10.37,2013-05-14 22:35:00,
2013-05-14 17:40:00,80.9,55.7,29.53,ENE,77,1.0,6.0,42,0.00,CLR,,0.00,WeatherDisplay:10.37,2013-05-14 22:40:00,
2013-05-14 17:45:00,80.9,55.7,29.52,SE,126,1.0,9.0,42,0.00,CLR,,0.00,WeatherDisplay:10.37,2013-05-14 22:45:00,
2013-05-14 17:50:00,80.7,54.8,29.52,SE,132,6.0,15.0,41,0.00,CLR,,0.00,WeatherDisplay:10.37,2013-05-14 22:50:00,
2013-05-14 17:55:00,80.7,55.5,29.52,SE,138,1.0,12.0,42,0.00,CLR,,0.00,WeatherDisplay:10.37,2013-05-14 22:55:00,
2013-05-14 18:00:00,80.7,54.1,29.50,SSE,147,1.0,15.0,40,0.00,CLR,,0.00,WeatherDisplay:10.37,2013-05-14 23:00:00,
2013-05-14 18:05:00,80.5,55.3,29.50,SE,140,3.0,15.0,42,0.00,CLR,,0.00,WeatherDisplay:10.37,2013-05-14 23:05:00,
2013-05-14 18:10:00,80.3,55.1,29.50,SSE,147,2.0,15.0,42,0.00,CLR,,0.00,WeatherDisplay:10.37,2013-05-14 23:10:00,
2013-05-14 18:15:00,80.3,54.5,29.48,SSE,154,3.0,12.0,41,0.00,CLR,,0.00,WeatherDisplay:10.37,2013-05-14 23:15:00,
2013-05-14 18:20:00,80.0,54.2,29.48,SSE,155,2.0,12.0,41,0.00,CLR,,0.00,WeatherDisplay:10.37,2013-05-14 23:20:00,
2013-05-14 18:25:00,79.8,54.0,29.48,SSE,152,2.0,9.0,41,0.00,CLR,,0.00,WeatherDisplay:10.37,2013-05-14 23:25:00,
2013-05-14 18:30:00,79.6,54.5,29.48,SE,144,3.0,10.0,42,0.00,CLR,,0.00,WeatherDisplay:10.37,2013-05-14 23:30:00,
2013-05-14 18:35:00,79.4,55.0,29.48,SSE,148,2.0,9.0,43,0.00,CLR,,0.00,WeatherDisplay:10.37,2013-05-14 23:35:00,
2013-05-14 18:40:00,79.2,54.8,29.48,SSE,162,0.0,8.0,43,0.00,CLR,,0.00,WeatherDisplay:10.37,2013-05-14 23:40:00,
2013-05-14 18:45:00,78.8,54.4,29.48,SW,226,1.0,7.0,43,0.00,CLR,,0.00,WeatherDisplay:10.37,2013-05-14 23:45:00,
2013-05-14 18:50:00,78.5,54.8,29.48,WSW,245,2.0,7.0,44,0.00,CLR,,0.00,WeatherDisplay:10.37,2013-05-14 23:50:00,
2013-05-14 18:55:00,78.1,54.4,29.48,South,189,5.0,8.0,44,0.00,CLR,,0.00,WeatherDisplay:10.37,2013-05-14 23:55:00,
2013-05-14 19:00:00,77.7,53.4,29.46,South,182,2.0,6.0,43,0.00,CLR,,0.00,WeatherDisplay:10.37,2013-05-15 00:00:00,
2013-05-14 19:05:00,77.5,54.5,29.46,SSE,162,0.0,12.0,45,0.00,CLR,,0.00,WeatherDisplay:10.37,2013-05-15 00:05:00,
2013-05-14 19:10:00,77.1,54.7,29.46,SE,138,1.0,7.0,46,0.00,CLR,,0.00,WeatherDisplay:10.37,2013-05-15 00:10:00,
2013-05-14 19:15:00,76.8,55.0,29.47,SSE,147,3.0,7.0,47,0.00,CLR,,0.00,WeatherDisplay:10.37,2013-05-15 00:15:00,
2013-05-14 19:20:00,76.5,55.3,29.47,South,181,5.0,10.0,48,0.00,CLR,,0.00,WeatherDisplay:10.37,2013-05-15 00:20:00,
2013-05-14 19:25:00,76.2,55.7,29.47,South,180,1.0,8.0,49,0.00,CLR,,0.00,WeatherDisplay:10.37,2013-05-15 00:25:00,
2013-05-14 19:30:00,75.9,56.5,29.47,South,174,0.0,6.0,51,0.00,CLR,,0.00,WeatherDisplay:10.37,2013-05-15 00:30:00,
2013-05-14 19:40:00,75.4,56.0,29.47,SSE,150,2.0,8.0,51,0.00,CLR,,0.00,WeatherDisplay:10.37,2013-05-15 00:40:00,
2013-05-14 19:45:00,75.3,56.5,29.46,SSW,195,3.0,9.0,52,0.00,CLR,,0.00,WeatherDisplay:10.37,2013-05-15 00:45:00,
2013-05-14 19:50:00,75.1,56.3,29.46,South,186,1.0,12.0,52,0.00,CLR,,0.00,WeatherDisplay:10.37,2013-05-15 00:50:00,
2013-05-14 19:55:00,74.7,56.4,29.46,SSW,202,1.0,5.0,53,0.00,CLR,,0.00,WeatherDisplay:10.37,2013-05-15 00:55:00,
2013-05-14 20:00:00,74.4,56.7,29.45,SSW,200,0.0,7.0,54,0.00,CLR,,0.00,WeatherDisplay:10.37,2013-05-15 01:00:00,
2013-05-14 20:05:00,74.0,56.8,29.45,South,172,2.0,9.0,55,0.00,CLR,,0.00,WeatherDisplay:10.37,2013-05-15 01:05:00,
2013-05-14 20:10:00,73.7,56.5,29.45,SSW,206,3.0,6.0,55,0.00,CLR,,0.00,WeatherDisplay:10.37,2013-05-15 01:10:00,
2013-05-14 20:15:00,73.5,56.8,29.45,SW,227,1.0,6.0,56,0.00,CLR,,0.00,WeatherDisplay:10.37,2013-05-15 01:15:00,
2013-05-14 20:20:00,73.2,57.1,29.45,SSW,202,1.0,7.0,57,0.00,CLR,,0.00,WeatherDisplay:10.37,2013-05-15 01:20:00,
2013-05-14 20:25:00,72.8,56.7,29.45,SSW,195,1.0,5.0,57,0.00,CLR,,0.00,WeatherDisplay:10.37,2013-05-15 01:25:00,
2013-05-14 20:30:00,72.7,57.1,29.43,SSW,207,0.0,6.0,58,0.00,CLR,,0.00,WeatherDisplay:10.37,2013-05-15 01:30:00,
2013-05-14 20:35:00,72.3,56.7,29.43,South,176,3.0,8.0,58,0.00,CLR,,0.00,WeatherDisplay:10.37,2013-05-15 01:35:00,
2013-05-14 20:40:00,72.3,56.7,29.43,South,179,1.0,6.0,58,0.00,CLR,,0.00,WeatherDisplay:10.37,2013-05-15 01:40:00,
2013-05-14 20:45:00,72.1,56.5,29.42,SSE,165,1.0,4.0,58,0.00,CLR,,0.00,WeatherDisplay:10.37,2013-05-15 01:45:00,
2013-05-14 20:55:00,72.1,55.5,29.42,SW,228,5.0,7.0,56,0.00,CLR,,0.00,WeatherDisplay:10.37,2013-05-15 01:55:00,
2013-05-14 21:00:00,72.2,55.2,29.43,SW,218,3.0,6.0,55,0.00,CLR,,0.00,WeatherDisplay:10.37,2013-05-15 02:00:00,
2013-05-14 21:05:00,72.3,54.7,29.43,SSW,212,3.0,7.0,54,0.00,CLR,,0.00,WeatherDisplay:10.37,2013-05-15 02:05:00,
2013-05-14 21:10:00,72.9,53.2,29.43,SSW,202,7.0,12.0,50,0.00,CLR,,0.00,WeatherDisplay:10.37,2013-05-15 02:10:00,
2013-05-14 21:15:00,73.8,54.0,29.43,SSW,200,5.0,8.0,50,0.00,CLR,,0.00,WeatherDisplay:10.37,2013-05-15 02:15:00,
2013-05-14 21:20:00,74.0,54.2,29.43,SSW,207,6.0,8.0,50,0.00,CLR,,0.00,WeatherDisplay:10.37,2013-05-15 02:20:00,
2013-05-14 21:25:00,74.4,53.4,29.43,SSW,203,8.0,15.0,48,0.00,CLR,,0.00,WeatherDisplay:10.37,2013-05-15 02:25:00,
2013-05-14 21:30:00,74.9,53.3,29.42,SSW,203,7.0,12.0,47,0.00,CLR,,0.00,WeatherDisplay:10.37,2013-05-15 02:30:00,
2013-05-14 21:35:00,75.3,53.7,29.42,SSW,201,6.0,10.0,47,0.00,CLR,,0.00,WeatherDisplay:10.37,2013-05-15 02:35:00,
2013-05-14 21:40:00,75.1,53.5,29.42,SSW,204,7.0,12.0,47,0.00,CLR,,0.00,WeatherDisplay:10.37,2013-05-15 02:40:00,
2013-05-14 21:45:00,75.3,53.7,29.42,SSW,205,7.0,10.0,47,0.00,CLR,,0.00,WeatherDisplay:10.37,2013-05-15 02:45:00,
2013-05-14 21:50:00,75.3,53.1,29.42,SSW,202,7.0,12.0,46,0.00,CLR,,0.00,WeatherDisplay:10.37,2013-05-15 02:50:00,
2013-05-14 21:55:00,75.3,53.1,29.42,SSW,201,6.0,10.0,46,0.00,CLR,,0.00,WeatherDisplay:10.37,2013-05-15 02:55:00,
2013-05-14 22:05:00,75.6,53.4,29.42,SSW,204,7.0,12.0,46,0.00,CLR,,0.00,WeatherDisplay:10.37,2013-05-15 03:05:00,
2013-05-14 22:10:00,75.8,53.5,29.42,SSW,205,8.0,12.0,46,0.00,CLR,,0.00,WeatherDisplay:10.37,2013-05-15 03:10:00,
2013-05-14 22:15:00,75.8,53.5,29.41,SSW,207,9.0,12.0,46,0.00,CLR,,0.00,WeatherDisplay:10.37,2013-05-15 03:15:00,
2013-05-14 22:20:00,75.8,54.1,29.41,SSW,207,8.0,10.0,47,0.00,CLR,,0.00,WeatherDisplay:10.37,2013-05-15 03:20:00,
2013-05-14 22:25:00,75.6,53.9,29.41,SSW,205,7.0,12.0,47,0.00,CLR,,0.00,WeatherDisplay:10.37,2013-05-15 03:25:00,
2013-05-14 22:30:00,75.5,54.4,29.41,SSW,208,7.0,9.0,48,0.00,CLR,,0.00,WeatherDisplay:10.37,2013-05-15 03:30:00,
2013-05-14 22:35:00,75.3,54.8,29.41,SSW,208,7.0,9.0,49,0.00,CLR,,0.00,WeatherDisplay:10.37,2013-05-15 03:35:00,
2013-05-14 22:40:00,74.9,55.1,29.41,SSW,209,6.0,10.0,50,0.00,CLR,,0.00,WeatherDisplay:10.37,2013-05-15 03:40:00,
2013-05-14 22:45:00,74.7,55.9,29.41,SSW,208,6.0,9.0,52,0.00,CLR,,0.00,WeatherDisplay:10.37,2013-05-15 03:45:00,
2013-05-14 22:50:00,74.2,56.0,29.41,SSW,207,7.0,9.0,53,0.00,CLR,,0.00,WeatherDisplay:10.37,2013-05-15 03:50:00,
2013-05-14 22:55:00,73.9,56.2,29.41,SSW,208,7.0,9.0,54,0.00,CLR,,0.00,WeatherDisplay:10.37,2013-05-15 03:55:00,
2013-05-14 23:00:00,73.7,56.5,29.41,SSW,205,6.0,8.0,55,0.00,CLR,,0.00,WeatherDisplay:10.37,2013-05-15 04:00:00,
2013-05-14 23:05:00,73.5,56.3,29.41,SSW,205,6.0,9.0,55,0.00,CLR,,0.00,WeatherDisplay:10.37,2013-05-15 04:05:00,
2013-05-14 23:10:00,73.5,56.8,29.41,SSW,204,6.0,7.0,56,0.00,CLR,,0.00,WeatherDisplay:10.37,2013-05-15 04:10:00,
2013-05-14 23:15:00,73.3,57.1,29.41,SSW,206,5.0,8.0,57,0.00,CLR,,0.00,WeatherDisplay:10.37,2013-05-15 04:15:00,
2013-05-14 23:20:00,73.2,57.1,29.41,SSW,206,5.0,7.0,57,0.00,CLR,,0.00,WeatherDisplay:10.37,2013-05-15 04:20:00,
2013-05-14 23:25:00,72.8,57.2,29.41,SSW,208,3.0,7.0,58,0.00,CLR,,0.00,WeatherDisplay:10.37,2013-05-15 04:25:00,
2013-05-14 23:30:00,72.6,57.5,29.42,SSW,209,3.0,6.0,59,0.00,CLR,,0.00,WeatherDisplay:10.37,2013-05-15 04:30:00,
2013-05-14 23:35:00,72.3,57.6,29.42,SSW,208,3.0,6.0,60,0.00,CLR,,0.00,WeatherDisplay:10.37,2013-05-15 04:35:00,
2013-05-14 23:40:00,71.8,58.1,29.42,SSW,209,3.0,7.0,62,0.00,CLR,,0.00,WeatherDisplay:10.37,2013-05-15 04:40:00,
2013-05-14 23:45:00,71.6,58.3,29.41,SSW,203,5.0,7.0,63,0.00,CLR,,0.00,WeatherDisplay:10.37,2013-05-15 04:45:00,
2013-05-14 23:50:00,71.6,58.8,29.41,SSW,206,3.0,6.0,64,0.00,CLR,,0.00,WeatherDisplay:10.37,2013-05-15 04:50:00,
2013-05-14 23:55:00,71.6,58.8,29.41,SW,216,3.0,6.0,64,0.00,CLR,,0.00,WeatherDisplay:10.37,2013-05-15 04:55:00,